Location: Br�ttisellen
(47.4227°N, 8.6287°E)
Time: 13:30:39
(UTC+00:00)

STARLINK-1199 - Pass Details

Date: 09 April 2020
Orbit: 549 x 550 km, 53.0° (Epoch: 26 May)

Event Time Altitude Azimuth Distance (km) Brightness Sun altitude
Rises 19:49:05 0° 295° (WNW) 2,718 8.9 -16.7°
Reaches altitude 10° 19:51:28 10° 285° (WNW) 1,821 7.4 -17.0°
Maximum altitude 19:55:09 32° 222° (SW) 956 4.9 -17.6°
Enters shadow 19:56:50 23° 180° (S) 1,186 5.0 -17.8°
